Weather Roundup
Issued by NWS

Home | Current Version | Previous Version | Text Only | Print | Product List | Glossary On
Versions: 1 2 3 4 5 6 7 8 9 10 11 12 13 14 15 16 17 18 19 20 21 22 23 24 25 26 27 28 29 30 31 32 33 34 35 36 37 38 39 40 41 42 43 44 45 46 47 48 49 50
000
NZUS93 KARX 171310
HRRWXR

CURRENT HOURLY OBSERVATIONS ACROSS
MUCH OF THE UPPER MISSISSIPPI VALLEY
NATIONAL WEATHER SERVICE LA CROSSE WI
700 AM CST MON FEB 17 2020


...SOUTHEAST MINNESOTA...


CITY           SKY/WX    TMP DP  RH WIND       PRES   REMARKS
ROCHESTER      FAIR      24  18  77 SE16      29.89F WCI  11
ROCHESTER/MAYO PTSUNNY   26  20  77 SE12      29.91F WCI  16
WINONA         FAIR     N/A N/A N/A S5        29.97F
AUSTIN         FAIR      30  27  86 S8        29.90S WCI  23
ALBERT LEA     FAIR      27  25  93 S12       29.88S WCI  16
DODGE CENTER   CLOUDY    27  21  80 SE14      29.89R WCI  15
PRESTON        FAIR      25  19  77 SE9       29.92F WCI  16
OWATONNA       FAIR      27  23  86 SE14      29.88R WCI  15
FARIBAULT        N/A     27  23  86 CALM      29.89S
$$

...ELSEWHERE IN MINNESOTA...


CITY           SKY/WX    TMP DP  RH WIND       PRES   REMARKS
MINNEAPOLIS    MOCLDY    24  16  71 SE8       29.91S WCI  15
INTNL FALLS    LGT SNOW   9   2  73 SE5       29.90F WCI   1
DULUTH         LGT SNOW  15  12  88 E10       29.91F FOG     WCI   2
RED WING       MOCLDY    27  18  69 SE13      29.92F WCI  16
REDWOOD FALLS  CLOUDY    18  17  96 NE3       29.83R
MANKATO        FAIR      24  23  96 SE14      29.86F WCI  12
WORTHINGTON    MOCLDY    28  27  96 CALM      29.78F
FAIRMONT       CLEAR     28  26  92 S9        29.84F WCI  19
$$

...SOUTHWEST WISCONSIN...


CITY           SKY/WX    TMP DP  RH WIND       PRES   REMARKS
LA CROSSE      FAIR      27  14  58 SE5       29.98F WCI  22
PRAIRIE DU CHI NOT AVBL
BOSCOBEL       FAIR      27  17  66 NE5       30.02F WCI  22
LONE ROCK      FAIR      27  20  75 E9        30.04F WCI  18
PLATTEVILLE    NOT AVBL
FORT MC COY    NOT AVBL
CAMP DOUGLAS   CLOUDY    23  17  79 E9        30.03F WCI  13
MAUSTON-NEW LI NOT AVBL
VIROQUA        NOT AVBL
WIS DELLS      NOT AVBL
$$

...ELSEWHERE IN WISCONSIN...


CITY           SKY/WX    TMP DP  RH WIND       PRES   REMARKS
MILWAUKEE      CLOUDY    33  24  69 SE20G25   30.10F WCI  21
MADISON        CLOUDY    28  21  75 SE12      30.05F WCI  18
GREEN BAY      CLOUDY    16   8  71 NE6       30.14S WCI   7
EAU CLAIRE     FAIR      22   8  55 E10       29.98F WCI  11
BLACK RVR FLS  NOT AVBL
MEDFORD        NOT AVBL
WAUSAU         CLOUDY    17   3  54 E7        30.05S WCI   8
WIS RAPIDS     CLOUDY    21   8  57 E9        30.07S WCI  11
MARSHFIELD     CLOUDY    19   4  51 E10G20    30.02F WCI   7
RICE LAKE      NOT AVBL
$$

...NORTHEAST IOWA...


CITY           SKY/WX    TMP DP  RH WIND       PRES   REMARKS
WATERLOO       CLOUDY    31  25  78 SE12      29.93F WCI  22
DUBUQUE        CLOUDY    30  25  81 E13       29.97F WCI  20
DECORAH        NOT AVBL
MASON CITY     CLOUDY    28  25  88 SE14      29.89F WCI  17
CHARLES CITY   NOT AVBL
OELWEIN        NOT AVBL
$$

...ELSEWHERE IN IOWA...


CITY           SKY/WX    TMP DP  RH WIND       PRES   REMARKS
DES MOINES     LGT RAIN  33  31  92 SE7       29.88F WCI  27
IOWA CITY      CLOUDY    35  28  75 E6        29.97F WCI  30
FORT DODGE     LGT RAIN  33  31  92 SE5       29.86F WCI  29
MARSHALLTOWN   CLOUDY    32  30  92 SE9       29.90F WCI  24
CEDAR RAPIDS   CLOUDY    31  28  89 E9        29.94F FOG     WCI  23
$$

...NORTHERN ILLINOIS...


CITY           SKY/WX    TMP DP  RH WIND       PRES   REMARKS
CHICAGO-OHARE  CLOUDY    34  26  72 E9        30.09S WCI  27
CHICAGO-MIDWAY CLOUDY    33  25  72 E10       30.10F WCI  25
MOLINE         LGT RAIN  33  29  85 E9        29.99R FOG     WCI  25
ROCKFORD       CLOUDY    33  26  75 E10       30.06F WCI  25
PEORIA         CLOUDY    36  28  73 SE8       29.99F WCI  30
$$

NOTE: "FAIR" INDICATES FEW OR NO CLOUDS BELOW 12,000 FEET WITH NO
SIGNIFICANT WEATHER AND/OR OBSTRUCTIONS TO VISIBILITY. WIND
SPEEDS ARE IN MILES-PER-HOUR.




USA.gov is the U.S. government's official web portal to all federal, state and local government web resources and services.
  • National Weather Service
  • El Paso, TX Weather Forecast Office
  • 7955 Airport Rd
  • Santa Teresa, NM 88008
  • (575) 589-4088
  • Page Author: EPZ Webmaster
  • Web Master's E-mail: sr-epz.webmaster@noaa.gov
  • Page last modified: Feb 4th, 2020 22:01 UTC